Starlink 30878

operational
NORAD ID: 58359 Int'l Des: 2023-177 Owner: SPXS Country: US Constellation: starlink
LEOCIRCULAR

关于 Starlink 30878

正在加载描述...

实时位置

正在加载3D地球...

即将过境

高度历史

Altitude vs Time

uPlot chart will show altitude changes over time

两行轨道根数

1 58359U 23177J 25304.49069384 -.00001625 00000-0 -10537-3 0 9992
2 58359 43.0042 333.3802 0000476 278.7383 81.3405 15.02512910108783
Epoch: Oct 31, 2025 • Age: 22 hours

当前状态

高度 570.6 km
速度 7.58 km/s
星下点 -39.01°S, 23.07°E
发射日期 Nov 18, 2023
运行时间 1.9 years
类型 internet

技术详情

分类 Payload
质量 730.00 kg
干质量 700.00 kg
总质量 730.00 kg
长度 0.30 m
直径 4.10 m
跨度 29.00 m
形状 Box + pan
制造商 SPXS
平台类型 Starlink V2M
阶段状态 In Orbit
所有者/国家 SPXS/US

大型星座

Loading constellations...